Theta_e
345 345 345 344 342 341 339 335 333 331 333 332 332 333 336 335 333 332 334 333 333 334 336 336 336 336 337 339 340 341 338 340 338 335 328 325 335 334 324 331 340 344 332
345 345 344 343 341 339 337 336 334 332 333 334 334 334 334 333 332 334 333 334 334 335 334 335 335 335 336 338 340 342 342 340 337 337 342 343 326 322 325 340 343 335 334
348 345 343 340 339 339 338 337 336 335 333 334 333 333 333 331 333 333 332 335 336 335 335 335 336 335 336 337 339 341 340 341 339 341 343 345 336 322 328 332 336 333 334
348 348 344 341 341 341 342 343 338 337 334 334 333 333 331 331 333 332 331 335 335 335 335 335 335 335 336 336 338 339 340 338 342 345 342 343 341 326 333 327 335 325 335
350 349 343 342 342 343 343 342 341 341 339 337 332 331 331 332 334 332 333 335 334 334 334 334 334 334 334 334 334 338 340 342 343 344 344 342 341 327 334 334 329 333 342
351 351 345 346 345 344 342 338 339 339 336 332 331 332 332 334 334 333 335 333 334 335 335 334 335 333 334 334 339 337 341 343 344 345 344 342 341 329 330 338 337 337 332
352 351 346 346 345 344 343 338 337 334 331 331 332 332 334 335 334 334 332 333 334 338 336 336 339 338 337 337 339 340 342 345 347 348 344 344 329 325 332 323 329 337 332
349 351 347 343 343 343 341 333 332 332 331 331 332 332 332 335 334 332 332 334 338 337 338 340 342 339 339 339 340 341 342 347 349 347 347 347 331 323 327 329 322 330 331
349 350 350 347 342 339 333 333 333 332 331 331 331 331 334 334 332 335 336 339 339 341 340 341 342 338 341 342 342 343 341 343 348 347 349 348 338 326 323 331 329 334 333
350 350 350 349 350 347 333 333 332 332 332 331 331 334 333 332 335 341 347 344 343 342 342 340 340 340 339 340 339 338 346 348 348 348 348 343 341 330 331 323 326 329 326
351 351 351 349 348 349 348 340 334 334 332 332 335 334 334 349 349 348 349 343 342 340 340 340 340 340 346 348 345 346 345 347 348 348 348 344 342 340 328 328 324 327 326
350 352 350 351 349 349 348 346 349 348 347 345 348 350 343 350 349 346 347 343 344 343 347 347 345 348 348 349 348 347 349 346 347 346 348 343 342 342 340 328 327 329 330
351 350 351 351 349 349 350 348 349 349 349 349 350 351 349 350 349 350 350 349 350 350 351 348 349 348 348 348 348 349 346 347 348 348 346 343 341 342 342 341 336 327 328
349 348 348 349 350 350 350 348 348 347 347 347 349 348 350 349 348 349 349 349 348 346 349 350 348 350 349 348 347 349 348 348 348 348 348 346 338 341 342 342 340 337 328
349 348 349 350 351 351 353 349 348 347 347 347 348 349 348 350 349 348 351 349 346 347 349 349 348 348 348 350 348 350 349 348 347 347 348 346 344 338 340 339 341 340 339
350 350 350 351 353 352 351 353 350 350 349 347 348 347 348 349 350 350 350 348 350 347 349 350 349 349 348 346 346 345 346 347 347 346 345 345 345 344 340 337 337 339 340
349 350 351 352 352 353 352 352 351 350 348 348 347 350 350 352 350 347 349 350 347 348 349 347 349 348 345 346 343 343 341 343 342 340 340 338 342 342 342 341 340 336 340
348 349 351 351 351 353 353 353 352 350 350 349 349 350 352 348 350 350 350 350 348 349 349 350 348 345 343 341 338 337 337 337 336 335 336 337 337 336 342 340 340 337 337
350 350 351 351 351 353 354 353 352 350 351 353 351 349 351 349 352 351 349 349 350 350 350 348 346 343 340 334 332 332 334 336 337 337 339 340 340 337 337 342 342 339 335
350 351 352 352 351 352 353 353 354 354 354 353 350 350 349 352 352 350 348 350 349 348 350 347 344 342 336 337 336 334 336 337 337 338 340 339 341 340 343 343 343 344 341
350 352 353 353 351 353 353 354 352 352 351 352 350 351 352 349 349 350 348 349 348 347 346 346 342 333 335 336 337 336 334 337 337 338 339 337 339 340 340 342 345 345 344
351 353 354 355 354 354 353 352 351 349 350 353 353 348 355 352 353 348 350 348 348 348 344 343 340 336 333 339 336 335 336 337 338 338 337 335 335 335 337 340 341 337 342
351 354 355 355 355 354 353 352 353 354 351 351 347 347 347 350 347 347 353 348 351 340 343 343 338 336 334 334 335 337 337 338 335 338 339 336 334 333 333 336 332 326 332
351 354 355 356 355 355 352 355 352 352 349 347 346 347 347 348 347 351 351 347 345 346 341 337 337 329 330 334 335 338 335 335 337 337 336 335 333 332 329 329 329 326 321
350 352 355 356 356 355 355 352 355 352 348 349 348 351 348 349 347 346 345 348 347 340 339 330 338 335 336 334 336 335 337 336 335 333 333 333 332 332 331 330 329 328 328
350 351 353 356 357 353 353 351 352 354 350 350 349 352 348 345 347 346 347 346 345 342 339 339 339 336 331 336 336 334 333 333 334 334 333 333 333 332 332 330 329 329 327
Wind_Speed
19 20 23 27 30 27 28 27 27 26 25 24 22 20 17 15 14 12 12 12 12 12 12 12 13 12 12 11 11 10 10 10 10 12 13 10 8 8 8 12 13 4 5
18 22 25 28 28 27 26 24 25 25 24 22 20 17 14 13 12 12 11 12 12 11 12 12 12 11 12 12 11 10 9 8 10 15 9 13 9 8 10 10 15 6 9
20 23 25 27 26 25 24 23 22 22 21 20 18 15 13 12 11 10 10 11 11 10 11 12 11 10 11 11 11 9 8 7 12 18 10 11 8 8 10 9 8 9 9
21 20 23 25 23 22 20 20 20 20 19 18 16 13 12 10 9 9 9 9 9 9 11 11 10 10 10 10 9 8 8 6 9 10 12 7 4 7 9 9 8 8 9
20 20 22 22 20 19 19 19 19 18 18 17 15 12 9 7 7 7 7 7 8 9 10 10 9 9 9 8 7 7 8 9 7 12 9 7 4 5 8 9 9 11 12
18 17 19 18 18 18 18 18 18 17 17 16 12 10 9 8 6 6 6 6 7 8 9 9 9 9 8 8 7 6 6 6 8 11 8 7 4 5 8 10 9 8 9
16 16 18 19 19 19 18 18 17 16 15 13 10 10 8 6 6 5 5 5 5 7 8 8 9 8 7 7 7 7 8 13 6 7 7 7 1 4 7 9 8 9 8
19 17 17 18 18 18 17 17 16 15 14 12 10 8 6 5 5 3 3 4 5 6 7 8 8 8 8 8 7 8 8 9 6 5 4 3 2 5 6 8 9 8 8
18 17 15 15 17 17 18 17 14 13 12 10 8 7 5 3 3 5 3 3 6 6 6 6 7 8 8 8 8 8 10 9 8 6 6 2 4 3 7 7 7 9 7
17 17 15 15 15 14 17 14 12 11 10 7 6 6 4 2 3 6 7 6 5 5 5 4 5 4 7 10 10 8 9 8 5 3 4 2 1 2 6 6 7 8 7
15 15 14 15 13 13 11 11 10 10 9 7 6 5 4 1 4 7 8 7 5 5 7 7 7 7 6 7 12 11 10 9 2 4 4 6 3 1 3 4 6 8 8
17 14 15 15 14 13 10 10 7 6 5 5 5 7 2 5 5 4 5 6 6 9 8 10 9 7 5 2 7 10 8 6 2 4 5 6 3 2 1 2 4 7 9
16 15 17 16 15 13 13 8 8 6 7 6 9 8 5 5 4 5 5 6 6 7 4 9 3 4 7 3 5 6 3 3 6 2 6 9 6 3 2 4 3 5 8
19 17 18 18 17 15 11 10 9 9 8 7 6 9 7 4 5 5 5 5 6 4 5 3 9 5 5 7 7 6 8 6 6 7 8 5 7 4 3 4 6 6 6
20 19 19 18 18 17 14 11 11 10 9 8 8 8 7 7 8 6 6 4 7 6 8 5 6 5 7 8 8 8 8 7 4 4 14 5 9 8 5 5 6 9 8
20 20 19 18 17 16 15 13 12 11 9 10 9 9 10 8 8 9 8 7 6 6 8 4 7 6 7 9 10 11 6 6 6 8 6 12 10 11 11 9 7 8 10
21 20 20 19 18 18 16 14 13 11 10 11 10 11 11 10 9 14 7 7 8 11 9 7 7 8 8 8 9 11 9 8 5 9 10 8 12 13 10 8 11 9 8
20 21 20 18 18 17 16 15 14 12 11 11 11 10 9 12 12 11 9 9 8 7 11 7 7 7 9 9 10 9 8 9 9 10 7 6 7 8 9 10 8 10 10
22 21 21 20 19 18 17 16 14 13 13 11 12 11 11 13 10 9 10 9 11 9 8 10 4 7 9 10 9 8 7 6 6 4 4 4 2 3 5 8 9 12 11
21 22 22 21 20 19 17 17 14 14 15 12 12 13 15 9 11 10 10 8 8 8 6 7 7 9 8 6 7 7 5 4 3 1 1 2 2 1 2 2 9 10 8
23 22 22 22 22 21 19 16 15 13 15 11 12 19 10 14 13 12 9 12 7 7 5 4 8 9 7 6 6 3 4 2 1 1 1 1 3 1 2 1 6 4 6
26 24 25 24 24 24 19 17 16 14 13 11 11 11 9 10 9 10 10 9 9 4 8 3 5 4 5 5 4 5 3 5 4 4 0 2 2 1 1 3 3 10 3
29 28 27 28 27 25 23 19 17 13 14 9 12 12 12 9 11 11 8 9 6 6 3 1 4 5 2 4 7 2 4 5 0 3 2 0 2 1 1 2 1 1 3
31 29 30 30 30 28 26 21 20 16 15 12 11 9 9 9 9 8 8 7 7 5 8 5 3 2 2 2 4 2 2 4 5 3 4 1 1 2 1 1 3 5 3
32 32 31 33 32 29 28 26 22 21 16 13 11 9 9 8 10 10 9 9 7 4 9 7 3 2 2 1 2 2 2 2 3 3 5 5 5 2 2 3 4 2 5
34 33 32 34 35 32 32 28 29 23 21 16 14 11 9 9 9 12 11 11 11 7 6 3 4 3 4 5 3 1 1 3 3 5 7 7 7 8 5 7 7 6 6
Wind_Direction
119 125 127 133 135 136 137 135 129 128 127 128 127 124 116 108 101 97 90 86 83 75 71 63 59 52 49 45 48 56 64 65 66 50 52 50 65 60 76 116 105 120 130
127 129 131 135 137 135 132 129 131 131 130 128 127 124 118 106 97 91 85 80 74 71 65 58 54 49 46 43 45 52 60 62 59 57 59 55 60 61 97 125 125 134 125
120 129 133 136 137 138 137 133 134 133 136 132 132 126 115 103 92 88 83 76 72 66 58 47 46 45 45 45 45 50 56 59 70 73 49 102 5 70 100 140 111 133 121
127 131 136 137 138 140 140 139 143 138 138 136 135 125 118 104 93 88 79 73 67 59 50 40 35 38 43 44 43 48 48 48 94 84 62 103 58 79 101 122 120 114 121
129 136 144 139 140 138 135 138 140 144 143 140 129 124 124 117 94 82 71 66 61 51 37 33 29 29 31 42 42 40 53 68 92 99 82 106 107 92 109 113 101 115 111
137 141 150 148 145 140 138 143 143 141 139 137 134 130 126 110 93 80 70 55 51 36 26 26 29 30 27 31 37 45 58 64 66 106 111 108 132 101 116 128 134 137 132
135 144 146 146 150 148 149 142 139 142 143 145 142 136 125 105 94 83 61 46 38 22 21 25 25 26 29 29 47 42 72 70 74 86 113 114 59 103 127 132 141 145 135
133 138 140 143 146 146 144 140 143 147 148 147 144 143 134 113 101 71 32 31 18 21 24 19 34 40 51 58 55 62 71 78 75 119 133 155 77 116 132 134 139 148 142
139 146 145 144 148 149 153 152 150 150 149 148 148 147 138 109 62 21 1 18 12 15 35 34 43 48 59 63 57 53 51 81 82 77 131 114 34 116 130 141 141 151 145
153 148 141 150 149 149 163 164 157 159 167 166 158 156 145 97 27 28 8 10 11 14 18 23 26 49 46 42 36 47 49 68 98 73 158 61 337 94 156 146 163 160 163
150 150 160 154 156 155 161 173 173 177 178 167 170 170 140 3 4 342 327 326 10 2 20 23 16 45 54 39 38 40 53 47 99 75 346 326 2 107 150 161 172 179 174
165 162 166 160 166 164 164 196 163 178 175 175 202 260 152 237 232 222 282 337 360 7 22 25 35 50 28 332 4 356 345 24 210 287 287 321 318 355 184 170 190 194 188
167 164 171 171 173 168 173 176 176 193 196 218 213 214 228 229 261 306 314 301 351 336 334 346 341 346 12 345 340 347 323 312 327 165 292 312 296 291 285 219 208 218 213
174 175 179 183 183 182 189 187 191 201 206 215 230 228 211 263 250 256 270 308 328 309 319 296 323 331 295 331 297 307 311 308 325 354 279 305 336 291 270 252 229 225 228
181 182 187 190 193 192 193 202 201 211 216 218 226 249 215 245 256 280 262 269 277 303 301 345 296 310 310 296 289 301 297 308 301 301 304 330 314 301 281 286 255 244 232
187 190 191 193 198 196 202 203 209 213 221 226 231 237 257 223 262 270 275 287 289 280 283 281 275 309 311 318 331 323 293 276 294 290 286 303 306 302 305 279 269 260 248
193 194 195 196 201 204 206 216 215 220 230 232 238 235 234 249 253 258 272 271 278 293 300 289 316 311 342 302 305 316 325 300 299 284 285 268 280 292 288 295 294 268 255
198 199 199 202 206 210 209 213 212 220 225 229 238 238 250 263 271 275 279 278 278 278 289 315 305 330 318 307 300 295 291 289 292 286 299 284 273 266 283 290 288 283 262
202 203 204 203 205 209 214 214 217 221 223 232 242 234 256 265 255 263 282 276 274 283 282 273 312 321 312 314 305 300 293 298 303 309 305 319 310 279 257 281 310 305 267
205 204 205 207 205 208 212 215 219 225 227 225 246 250 245 250 251 258 267 261 270 279 260 243 301 311 330 316 308 287 285 288 291 305 351 39 352 57 311 306 296 297 290
202 203 204 203 208 203 207 211 220 227 236 240 235 249 253 255 258 247 253 271 271 257 253 333 316 324 324 311 310 289 264 337 330 178 77 355 11 19 332 241 304 56 227
202 203 202 202 204 200 206 208 214 216 225 233 229 246 248 248 261 252 244 248 270 248 288 255 309 342 323 323 331 296 247 208 184 135 338 0 332 0 337 354 285 208 278
206 205 207 207 205 205 195 211 217 215 228 226 238 247 254 239 236 234 223 223 215 231 270 320 293 319 288 318 335 341 299 80 281 164 137 327 18 324 5 356 359 305 203
210 209 210 214 211 212 209 207 214 214 219 226 229 228 215 225 216 240 214 222 224 207 236 283 282 217 329 330 327 10 330 338 312 131 180 204 37 2 336 21 344 357 57
213 212 212 216 218 210 218 208 216 215 218 217 217 216 215 221 196 206 209 212 228 227 259 239 272 211 235 228 296 304 313 287 331 312 300 129 323 240 296 310 268 273 322
215 214 213 214 219 220 216 223 209 219 216 215 217 217 217 209 215 203 206 212 226 220 239 232 232 249 198 215 201 264 299 296 302 304 292 295 310 294 268 285 276 276 277